{"data":{"norad_id":57710,"intl_designator":"2023-129N","name":"STARLINK-30335","alt_names":[],"object_type":"PAYLOAD","status":"ACTIVE","operator":null,"country":"US","launch_date":"2023-08-27","launch_site_code":"AFETR","launch_vehicle":null,"mission":null,"orbit_class":"UNKNOWN","rcs_meters":null,"size_class":null,"mass_kg":null,"dimensions":null,"purposes":["comms"],"wikipedia_slug":null,"has_3d_model":false,"image_url":null,"decayed_at":null,"tle_current":{"epoch":"2026-05-25T02:56:34.176192Z","epoch_age_seconds":71239,"freshness":"FRESH","line1":"1 57710U 23129N   26145.12261778  .00001191  00000+0  52781-4 0  9997","line2":"2 57710  43.0046  46.1115 0001215 256.1905 103.8811 15.27586965152378","mean_motion":15.27586965,"eccentricity":0.0001215,"inclination_deg":43.0046,"raan_deg":46.1115,"arg_perigee_deg":256.1905,"mean_anomaly_deg":103.8811,"bstar":5.2781e-5,"rev_number":15237,"period_min":94.266318906433,"perigee_km":482.19460882654,"apogee_km":483.86187197996,"semimajor_km":6861.1652404032,"source":"CELESTRAK","updated_at":"2026-05-25T13:38:18.373045Z"}}}